Theta_e
293 294 294 294 295 296 296 297 298 297 297 297 298 299 300 300 300 296 293 297 290 285 285 286 287 285 285 285 282 284 284 283 285 280 279 278 275 279 276 281 282 281 281 280 282 280 277 285 284 284 285 285 284 287
294 294 294 294 295 296 296 297 297 297 297 297 298 299 300 300 299 297 290 296 295 286 285 288 289 289 288 288 285 284 282 282 285 282 282 283 277 282 276 273 280 280 282 281 283 282 288 285 285 289 289 287 287 286
291 294 294 294 294 295 296 296 296 297 297 297 297 298 298 299 298 296 292 293 290 284 284 285 285 289 291 290 293 284 283 287 285 286 284 281 275 280 276 274 277 281 285 280 281 284 285 287 288 289 289 286 285 284
291 292 294 294 294 295 296 296 296 296 296 297 297 297 298 298 298 296 291 293 290 285 280 280 287 286 289 291 291 291 289 288 287 284 282 282 276 281 277 278 278 281 283 280 280 284 285 285 284 286 286 284 283 284
290 292 293 293 294 295 295 295 295 295 296 296 296 296 297 298 298 295 293 292 293 285 278 279 282 284 287 288 288 290 289 286 282 279 275 273 279 278 277 277 275 282 282 280 278 285 285 284 282 283 283 284 284 284
290 292 293 293 294 294 294 295 294 295 295 296 296 296 297 297 296 290 283 291 293 291 280 273 281 279 282 286 286 285 286 285 283 280 277 279 283 280 271 270 281 284 285 286 284 283 283 282 283 281 281 282 282 282
289 291 292 293 293 293 293 294 294 294 294 295 296 296 296 297 292 285 281 287 294 291 281 274 274 279 282 283 283 284 284 282 282 281 277 279 279 279 272 271 279 282 283 283 282 282 281 281 282 281 281 279 277 275
290 289 290 291 291 292 292 293 293 294 294 295 295 296 296 296 293 286 291 295 293 284 283 272 271 273 280 279 279 284 283 284 280 279 280 277 279 278 271 279 280 281 281 281 282 282 282 280 277 277 276 274 272 273
290 289 289 290 290 290 291 292 293 293 294 294 295 295 292 286 284 284 295 293 289 281 272 270 268 266 277 279 281 281 283 277 282 274 276 279 272 273 278 279 279 280 281 281 279 274 274 275 277 275 273 271 272 273
289 290 289 289 289 290 291 292 293 293 294 294 288 284 281 284 293 293 286 282 277 279 274 269 272 267 277 275 274 275 277 271 274 276 279 275 274 281 282 280 281 281 281 277 273 273 268 269 273 273 273 274 275 273
289 289 289 289 289 290 291 292 293 293 292 285 282 280 285 293 285 282 277 276 276 272 271 270 271 269 276 270 270 275 272 270 264 269 272 266 269 279 281 279 280 281 280 278 280 281 278 277 278 276 272 273 272 271
289 289 289 289 289 289 291 293 293 286 285 284 284 286 284 281 278 274 273 272 269 265 270 268 269 273 273 275 269 272 271 271 264 272 272 263 273 268 266 266 266 265 264 264 266 269 272 274 272 271 270 269 270 270
289 289 289 289 289 288 289 293 291 291 287 284 280 278 277 275 270 268 265 262 263 264 268 267 268 273 277 274 269 270 265 266 266 268 263 267 266 262 259 259 259 259 259 260 261 263 265 267 268 267 273 266 268 267
288 288 289 289 289 289 290 291 290 287 281 276 273 269 269 268 266 262 262 264 265 268 270 271 267 268 268 267 266 262 266 265 261 257 261 265 256 254 255 255 253 254 254 256 256 259 260 261 263 262 262 263 266 265
288 287 288 287 288 290 290 287 282 274 274 271 271 266 264 260 256 253 253 256 257 261 266 267 266 270 265 264 263 262 260 258 261 261 264 257 253 253 253 253 252 252 253 253 254 255 257 258 259 258 255 258 258 260
288 286 285 288 288 288 285 279 274 272 263 264 264 261 256 259 257 256 255 254 257 261 263 266 262 261 260 261 261 258 258 259 263 261 254 253 250 250 251 249 250 250 250 251 252 253 254 253 252 252 250 252 252 255
284 279 284 286 284 281 279 268 266 261 263 261 251 251 252 256 256 254 255 255 257 258 263 262 258 261 263 258 258 261 260 262 254 251 251 249 248 247 247 248 248 248 249 249 249 249 249 249 250 251 250 250 249 249
276 280 283 281 275 272 264 264 262 255 252 252 253 248 250 250 252 253 254 256 256 258 260 261 260 260 257 257 258 257 251 249 249 249 249 248 247 246 245 246 247 247 248 248 248 249 248 250 252 252 251 251 251 250
278 278 280 279 275 267 263 260 262 255 247 248 249 250 250 248 250 253 253 255 254 257 258 260 261 258 258 250 248 247 246 246 246 248 249 248 246 245 246 247 248 247 247 246 246 249 250 251 253 255 253 253 253 252
276 277 276 275 273 265 258 257 261 256 249 250 251 251 251 249 249 249 252 253 254 255 257 255 253 248 248 247 246 245 246 247 245 245 248 248 248 246 247 246 248 248 249 248 248 252 250 251 253 255 255 254 254 253
270 270 272 266 262 259 255 255 254 252 253 250 253 252 248 249 248 247 249 251 254 252 251 246 245 243 243 243 243 243 244 244 243 244 243 246 246 249 249 248 247 247 247 248 249 250 253 250 253 254 255 255 255 255
264 268 263 266 261 258 255 254 254 255 252 251 252 253 250 249 249 246 247 250 249 244 244 243 246 244 243 241 241 241 242 240 240 242 246 247 245 246 246 246 246 247 247 248 248 248 249 251 252 253 253 253 255 255
263 262 257 257 258 255 250 255 254 253 253 251 251 253 251 249 246 249 252 249 246 245 245 244 243 240 240 240 240 240 240 240 240 243 244 245 246 246 247 249 248 248 248 248 249 250 250 253 254 253 253 253 253 253
257 249 248 247 250 247 250 251 253 252 252 251 254 252 248 246 246 252 251 246 246 246 245 243 241 242 242 241 241 243 243 243 243 245 246 247 249 250 249 249 250 250 250 252 251 251 252 252 253 253 253 253 253 253
252 243 244 242 245 245 246 246 247 249 246 245 248 248 246 243 250 251 250 249 248 247 246 243 243 246 247 250 252 252 250 249 248 248 249 248 249 251 252 252 252 252 251 251 252 252 252 252 253 253 253 253 253 253
243 238 240 238 240 242 239 241 241 242 243 244 242 242 240 243 247 247 247 246 244 243 243 243 243 245 246 247 246 247 246 245 246 247 250 249 249 249 250 251 252 253 252 252 252 252 251 252 252 251 251 251 251 251
243 240 238 237 238 239 239 238 238 240 239 240 239 240 242 244 244 245 244 242 241 241 240 239 239 240 243 243 244 243 242 242 243 246 245 246 248 249 249 249 250 251 250 250 251 251 250 251 250 250 250 249 248 248
237 236 239 238 238 237 237 238 239 239 239 237 237 241 243 244 245 244 243 240 237 237 238 238 239 239 239 240 239 238 239 238 240 242 242 244 245 246 247 248 249 254 250 249 249 249 248 248 248 248 247 247 246 245
236 234 235 237 236 239 237 238 238 236 236 235 238 240 241 242 240 239 240 238 234 235 237 237 240 235 236 238 238 238 237 237 240 241 240 242 243 245 241 241 241 242 243 242 248 252 246 244 245 245 245 244 245 242
236 232 237 237 239 239 237 233 233 230 232 232 231 235 237 238 239 236 236 234 235 237 237 236 236 235 237 237 240 241 239 241 242 244 241 243 244 241 240 240 241 240 241 240 244 244 249 246 247 246 245 243 242 242
233 232 235 237 237 235 232 229 228 228 229 229 228 231 235 236 238 237 237 236 235 234 235 236 237 237 237 238 237 237 242 240 241 242 243 243 244 243 243 243 243 241 239 240 240 240 242 242 241 241 242 243 244 245
233 232 235 238 238 232 229 229 230 230 230 231 233 229 233 235 238 243 240 236 235 236 240 239 237 242 241 243 240 241 245 244 241 243 243 244 244 244 245 244 242 240 240 242 242 242 241 242 242 242 244 243 244 244
232 230 231 234 236 237 233 233 234 235 233 233 233 231 231 234 240 245 242 240 243 242 243 243 243 243 242 242 242 243 244 243 242 249 250 250 249 248 244 243 242 242 242 242 242 243 242 242 243 243 243 243 244 244
Wind_Speed
6 11 10 10 10 12 12 13 15 11 10 8 9 11 11 13 11 5 3 6 3 4 4 7 6 5 4 3 6 6 5 2 2 3 3 4 3 5 4 8 10 11 10 6 7 4 14 6 1 10 5 4 6 4
11 13 11 11 10 12 13 14 14 14 12 11 10 13 14 15 12 6 4 3 5 6 3 3 4 3 4 3 7 2 1 4 4 3 2 3 3 3 4 4 2 5 7 7 10 9 2 5 1 2 4 5 6 5
9 13 14 13 13 13 14 14 14 14 14 12 12 14 13 15 10 6 4 2 4 4 3 3 4 3 2 4 2 6 1 1 3 1 3 2 3 3 4 5 4 3 2 3 3 5 4 3 2 4 6 4 1 2
11 11 15 14 13 14 16 16 15 15 15 13 12 13 16 13 15 9 4 2 4 3 3 0 4 4 5 5 7 4 7 6 5 3 3 3 2 1 0 2 2 4 6 5 5 4 4 1 1 3 3 2 2 3
9 10 13 14 14 16 16 16 15 15 14 14 13 12 16 17 17 9 5 1 2 3 3 3 2 6 5 3 5 7 8 6 3 3 3 3 2 3 1 3 4 5 7 6 5 2 3 2 2 3 3 4 6 7
5 10 12 13 14 16 16 15 14 14 14 14 14 13 14 17 18 4 3 1 1 2 4 3 2 5 3 4 6 3 2 2 3 4 2 0 1 4 3 4 7 8 3 2 3 3 2 2 4 2 3 3 3 6
3 5 12 12 12 14 15 15 14 13 14 16 15 16 14 20 5 2 3 5 11 4 3 3 3 2 4 4 3 3 2 1 3 2 1 3 1 4 1 7 4 7 7 4 4 4 3 4 4 2 3 2 1 1
10 8 11 11 12 12 12 13 14 14 13 14 16 15 21 18 14 3 2 18 6 5 2 3 2 3 2 3 3 0 2 2 1 3 1 3 2 3 5 20 5 7 4 3 6 7 5 3 1 4 3 4 3 6
15 13 11 9 9 9 10 14 14 14 15 15 15 13 8 3 3 4 18 12 4 4 4 3 5 4 1 2 3 1 1 3 2 3 3 5 3 8 15 8 5 7 8 7 5 2 3 6 9 6 7 6 7 7
17 15 12 10 9 9 12 15 16 17 17 18 6 2 3 3 17 20 4 3 3 2 3 3 2 3 2 2 2 4 2 3 3 6 4 4 7 18 19 6 5 5 9 6 3 7 3 7 9 8 12 8 11 8
18 16 12 9 6 9 14 17 19 19 12 2 3 2 0 16 4 1 4 4 3 3 2 2 4 5 3 4 3 0 3 2 2 6 7 4 7 13 4 8 6 8 8 10 9 12 7 7 8 9 7 10 8 8
16 17 13 10 6 6 9 22 21 5 2 7 8 5 2 2 2 3 3 2 2 5 1 3 2 4 0 2 5 1 2 2 4 1 3 4 3 6 11 9 10 12 12 10 8 9 9 8 5 5 4 4 8 8
16 16 14 14 11 4 4 24 20 20 9 4 5 3 1 2 4 5 4 2 3 2 3 2 2 4 2 2 3 4 3 4 2 2 5 6 2 4 6 6 8 7 10 8 10 9 10 11 8 4 8 5 7 8
12 12 15 12 15 9 16 26 19 9 7 4 2 4 1 3 1 2 3 5 0 1 5 4 3 4 2 3 4 6 5 5 0 1 7 3 1 4 4 3 4 9 8 9 8 10 11 9 11 8 7 4 7 9
11 7 11 10 11 17 17 21 18 7 4 4 3 3 2 2 3 2 1 0 3 3 2 4 4 4 0 4 2 4 4 4 7 7 5 1 1 2 4 6 7 8 8 10 9 9 9 10 10 8 6 7 2 4
16 17 7 7 11 23 19 15 10 4 5 5 5 4 2 3 1 1 2 2 4 3 3 3 3 4 2 5 4 7 7 7 5 3 2 1 1 3 3 3 5 6 6 7 9 8 8 7 7 7 5 6 5 1
16 5 14 21 23 21 22 7 4 8 4 4 2 2 2 4 3 2 3 2 3 2 1 3 5 9 2 3 2 5 7 5 2 1 1 2 1 4 4 6 5 6 7 6 5 6 5 5 5 4 3 4 3 3
6 6 11 10 6 8 6 8 5 6 7 3 1 1 3 2 2 2 1 2 2 2 2 2 1 2 6 6 4 3 3 2 2 1 0 1 2 3 3 5 6 6 6 6 5 5 4 4 5 2 2 2 3 4
13 12 13 13 9 7 5 6 5 5 2 1 1 2 3 2 2 1 1 1 1 1 0 1 3 3 4 2 2 1 2 3 2 3 3 3 1 3 5 5 6 4 4 4 4 3 3 3 3 1 0 0 2 1
15 19 15 19 8 5 6 4 3 5 3 1 1 2 2 2 1 1 1 2 1 1 2 2 3 1 1 1 1 0 0 2 2 4 3 2 2 3 4 3 3 5 5 5 4 4 3 2 2 2 2 2 3 1
8 9 14 8 6 8 6 3 4 2 2 3 1 1 1 1 3 3 2 3 2 2 1 1 1 1 0 1 1 0 2 1 1 2 3 4 3 6 5 4 3 3 2 3 2 3 4 2 2 2 2 3 2 3
3 10 4 6 6 5 6 5 2 1 3 2 1 1 2 2 2 3 3 1 3 1 1 1 0 0 1 2 2 3 3 1 3 3 7 6 4 3 3 3 3 4 3 2 2 1 0 2 1 2 2 3 3 2
7 6 6 7 6 7 2 2 2 4 2 1 1 3 2 2 1 3 0 2 1 1 1 1 2 3 3 4 2 4 5 5 3 4 4 3 3 3 2 4 2 3 4 3 2 1 0 0 2 2 2 3 3 2
12 10 9 6 7 3 2 4 2 2 2 3 2 3 2 3 5 1 2 0 1 2 2 3 2 3 2 2 2 3 3 3 3 4 4 2 3 3 2 3 3 3 2 3 1 1 1 0 2 2 2 2 2 2
11 12 7 8 5 6 7 5 5 4 3 3 2 2 2 3 1 2 1 2 1 1 0 1 1 2 2 2 2 1 2 1 2 3 2 1 3 4 4 4 4 3 1 2 2 2 1 1 1 0 1 1 1 0
12 6 6 4 4 5 3 3 4 2 2 3 2 2 2 3 3 1 2 2 2 2 1 0 1 2 2 3 2 2 0 1 1 3 2 2 2 3 4 5 4 0 1 2 3 2 2 2 2 2 1 2 3 3
8 5 3 1 1 0 3 1 0 3 4 2 3 4 3 3 2 5 2 2 2 2 1 1 2 3 4 3 2 2 1 2 4 4 4 4 4 4 4 4 4 2 3 3 3 3 3 3 4 4 4 2 3 4
3 4 3 4 3 0 3 2 3 2 1 1 2 2 3 5 5 4 4 2 0 2 3 4 4 4 4 4 3 2 4 2 4 6 5 7 7 6 6 5 4 10 2 3 3 3 2 3 3 4 4 4 4 3
3 3 1 4 3 4 3 2 2 1 1 2 2 3 4 4 3 2 3 0 1 2 3 3 4 1 3 4 4 4 3 2 3 4 4 4 4 4 2 2 3 3 2 3 7 6 6 6 6 6 6 4 4 3
4 2 3 2 3 2 3 2 2 2 1 1 1 4 4 5 5 1 1 1 1 3 4 3 3 0 3 2 4 6 4 6 7 6 4 5 5 3 2 3 3 3 3 3 4 4 7 4 5 2 2 2 2 3
1 2 2 0 2 2 2 1 1 1 1 1 1 3 4 5 6 3 3 3 2 0 2 4 4 4 4 4 4 3 5 3 6 8 7 6 6 6 5 5 4 4 3 4 3 3 3 3 3 4 6 8 7 7
3 2 2 3 4 3 2 2 1 0 1 2 3 1 4 4 4 5 4 4 2 2 7 5 3 5 5 5 4 4 7 5 4 6 8 6 7 7 7 5 4 3 4 5 5 5 5 7 6 7 8 10 10 10
2 0 1 2 4 5 4 4 3 4 1 1 3 3 3 3 6 5 2 5 5 4 4 5 5 5 6 7 7 6 7 6 8 11 12 13 13 11 6 5 4 5 6 6 6 6 8 9 10 11 11 12 13 13
Wind_Direction
241 215 210 221 212 220 196 198 186 186 181 193 188 172 152 134 118 76 72 24 75 69 25 28 20 93 72 94 141 161 108 12 84 131 132 186 130 215 111 157 166 168 173 188 199 225 258 176 50 163 191 163 169 152
257 245 230 223 211 216 200 198 182 179 183 177 169 171 152 145 117 91 87 22 45 71 76 8 9 342 34 19 120 51 76 137 173 131 178 114 130 148 168 199 330 170 181 170 186 208 167 181 120 128 160 183 182 166
276 254 230 231 217 206 202 193 184 176 173 173 171 165 158 161 132 86 95 62 57 90 66 64 72 48 23 24 61 119 319 149 70 56 94 74 131 125 159 239 113 287 158 161 89 237 198 190 215 222 199 206 164 252
279 258 229 228 212 208 195 188 181 175 169 166 163 167 162 158 130 115 104 116 80 83 106 215 311 40 346 27 47 48 116 68 95 68 93 133 154 80 17 168 147 191 126 170 268 278 275 280 99 353 334 168 218 272
267 247 219 215 206 198 188 182 176 176 174 169 162 171 167 163 134 89 87 172 85 106 127 97 34 3 12 62 88 83 106 101 90 65 81 190 112 99 14 41 253 186 178 170 213 192 133 86 58 10 341 275 232 225
268 233 197 185 183 178 176 172 170 171 174 179 168 170 174 152 122 88 75 300 196 92 93 106 73 22 28 70 110 125 99 85 97 123 181 246 50 112 142 226 227 193 205 139 158 140 121 288 294 206 266 298 254 232
175 163 139 147 161 163 161 163 166 170 173 179 171 170 160 142 92 89 180 164 154 89 85 87 101 22 352 68 28 64 43 78 112 145 171 138 225 130 168 239 137 182 171 175 119 93 311 188 234 194 222 225 37 72
185 179 158 160 160 166 173 169 168 169 163 171 171 171 152 134 111 71 341 140 117 91 96 121 108 98 262 125 117 160 118 111 76 164 39 134 47 83 249 242 170 231 227 181 175 207 217 116 110 227 167 140 192 201
185 184 168 172 167 187 187 177 178 173 164 165 162 153 141 100 120 155 142 89 61 106 132 121 135 176 221 117 97 153 170 138 151 194 191 128 182 218 234 239 168 187 195 218 210 155 148 214 245 225 196 204 219 216
179 181 167 177 181 195 209 188 181 176 157 147 73 113 133 162 138 116 90 122 34 22 34 137 100 130 183 115 138 115 171 203 183 212 139 183 239 247 241 96 152 171 206 162 141 271 261 264 230 231 215 210 212 204
169 168 157 154 168 196 190 179 173 162 122 87 110 84 354 135 77 51 144 148 122 144 168 200 136 137 269 128 159 132 168 191 143 242 150 220 255 257 184 223 230 202 207 217 233 245 221 210 218 225 229 213 195 182
161 155 147 133 134 158 201 172 136 79 203 129 109 91 80 95 86 134 121 69 109 183 48 121 189 117 113 79 96 333 144 65 242 272 119 254 281 28 29 15 10 13 8 1 356 344 328 318 309 282 276 221 200 190
144 146 149 133 114 86 205 139 126 134 90 61 50 99 151 107 149 168 126 325 105 162 178 166 86 117 100 45 70 103 126 230 48 124 223 230 123 31 2 352 342 2 360 350 339 332 330 319 319 271 267 236 175 172
140 148 143 142 115 91 149 128 118 80 60 69 64 87 66 123 114 134 142 151 342 85 134 118 99 130 149 83 154 117 228 78 105 246 231 244 58 307 341 335 352 345 344 331 321 326 322 322 315 308 310 251 174 180
126 114 126 129 124 121 90 72 53 44 62 85 96 116 99 125 54 55 274 8 352 297 58 70 37 92 267 96 157 87 43 240 194 218 221 163 121 2 338 347 344 341 334 328 327 318 321 322 323 308 335 327 336 124
76 51 15 52 90 95 84 55 29 58 51 45 48 92 353 59 28 49 0 48 343 334 332 56 118 76 221 152 94 209 139 205 241 209 184 109 347 324 316 313 303 299 303 302 308 315 318 327 319 302 344 359 349 16
60 53 60 73 81 63 44 72 57 46 56 66 45 15 335 63 76 76 355 44 330 26 136 113 108 202 90 87 228 185 191 210 151 126 146 127 233 291 294 298 298 308 305 301 297 301 301 290 297 315 326 322 23 41
56 60 64 71 71 56 43 31 70 59 54 7 32 2 53 16 95 76 25 22 360 18 21 160 62 93 168 168 255 263 39 302 115 113 327 332 319 306 298 294 296 297 299 301 295 288 284 321 305 344 57 33 42 29
68 49 51 56 74 81 66 33 16 86 88 113 101 2 59 99 58 45 7 33 9 347 8 33 94 190 232 34 84 344 17 36 342 318 296 261 174 306 297 298 299 298 310 298 317 312 311 328 330 5 10 115 81 51
59 46 49 45 54 74 73 35 13 78 81 184 51 38 46 65 54 320 32 7 359 56 71 139 202 139 93 182 94 189 279 356 7 334 310 38 63 357 311 283 281 293 300 302 287 285 297 332 354 335 322 88 108 151
36 359 21 55 56 57 75 22 63 85 129 74 310 49 88 48 38 30 359 320 46 62 34 67 121 180 77 284 330 277 282 172 214 181 251 303 318 320 298 294 292 295 288 294 311 313 17 15 338 338 29 30 56 61
9 13 50 26 82 77 78 9 63 88 69 121 103 23 50 50 32 354 292 356 68 201 139 143 232 4 302 272 253 206 228 241 271 268 266 262 276 308 318 298 331 309 302 299 315 346 10 309 348 3 74 80 44 46
23 34 49 13 82 48 23 256 83 6 85 92 219 114 45 52 310 300 182 76 165 191 136 182 227 212 221 273 300 275 216 197 252 260 273 274 272 266 287 294 301 304 304 285 300 288 222 3 75 92 85 98 110 97
33 47 36 40 25 59 320 42 39 70 45 26 26 95 45 331 321 258 82 358 235 157 190 210 171 325 328 323 270 247 224 183 247 262 229 232 284 283 223 264 272 262 247 292 308 303 255 164 147 139 127 114 151 158
67 0 26 7 358 38 36 21 2 39 62 351 43 44 13 314 40 45 26 311 1 293 338 152 200 217 247 278 272 136 128 359 320 312 284 194 292 292 270 232 243 240 228 271 252 229 219 259 291 123 117 130 200 135
67 335 55 329 348 62 325 54 26 11 16 37 20 285 358 34 59 275 260 260 262 247 272 246 282 308 267 205 273 304 313 26 324 261 260 28 329 308 301 307 313 117 355 297 308 276 235 232 235 219 206 190 207 219
57 347 346 209 159 91 40 11 356 73 55 40 318 0 36 62 278 259 274 236 206 244 204 210 194 213 238 277 277 268 267 221 219 265 303 289 266 252 251 265 288 348 336 309 284 277 257 235 230 227 232 226 215 216
115 19 62 312 15 203 120 36 51 57 303 300 52 27 141 180 232 245 221 258 214 320 273 246 221 217 235 244 242 273 287 277 280 267 268 253 238 235 231 245 262 276 263 287 288 282 256 259 253 242 231 237 248 226
42 328 21 356 351 43 55 113 208 240 295 105 153 266 258 249 245 248 280 244 352 26 330 324 308 312 282 260 246 230 209 150 49 334 313 289 325 306 254 255 264 265 258 268 279 263 229 223 221 219 228 222 236 230
334 31 20 32 68 6 251 158 235 268 267 195 237 304 288 271 250 207 166 20 292 245 237 242 261 83 269 321 301 307 233 195 200 199 212 243 234 242 250 255 260 260 245 230 255 281 299 341 342 8 162 229 228 234
287 10 343 285 198 241 224 262 303 312 288 259 194 188 257 301 306 242 189 214 206 275 337 288 282 221 225 245 217 272 293 247 208 227 243 264 272 267 260 244 233 218 207 210 223 233 244 253 237 254 261 259 253 249
7 74 74 348 305 280 50 45 243 241 299 14 284 263 313 347 293 278 201 125 111 259 239 215 227 266 219 230 234 240 252 269 246 238 242 244 250 251 251 248 238 220 222 238 234 235 234 243 249 245 256 259 257 253
340 313 253 329 338 357 334 18 6 337 2 307 271 208 224 189 244 281 272 211 211 215 244 233 235 248 244 244 243 253 245 249 253 263 263 256 253 255 248 232 219 216 228 238 242 236 242 244 253 255 254 255 260 261